Location: Zagreb
(45.8000°N, 16.0000°E)
Time: 21:11:23
(UTC+01:00)

deb Explorer IX - Pass Details

Date: 05 October 2020
Orbit: 537 x 1106 km, 38.8° (Epoch: 30 October)

Event Time Altitude Azimuth Distance (km) Brightness Sun altitude
Rises 14:24:14 0° 206° (SSW) 3,651 ? 34.5°
Reaches altitude 10° 14:28:07 10° 186° (S) 2,589 ? 34.2°
Maximum altitude 14:31:33 16° 152° (SSE) 2,108 ? 33.8°
Drops below altitude 10° 14:34:45 10° 117° (ESE) 2,363 ? 33.5°
Sets 14:38:02 0° 95° (E) 3,170 ? 33.2°
